STARLINK-3835, 52476

Orbit data source: Space-Track

STARLINK-3835, 52476 is a payload satellite owned by SpaceX/Seattle (US) in LEO that was launched on Fri, 06 May 2022 UTC via an FALCON 9 launch vehicle from the Air Force Eastern Test Range (AFETR). Payload-class satellites include a variety of spacecraft equipped with specific instruments for various scientific and technological missions. These include communications satellites like Starlink; space stations such as the ISS; scientific satellites like the Hubble; Earth observation satellites from companies like Planet Labs, Umbra, and HawkEye 360; GPS; miniature CubeSats for education and research; and military/defense satellites.

Loading next visibility...
Identifier
52476, 2022-049AB
Orbit
LEO
Country
Flag of USUS
Related business
Manufacturer
SpaceX/Seattle
Mission
Operational Commercial Communications
Bus & Motor
STARLINK, Unknown motor
Mass
297 kg wet, ~220 kg dry
Launch date (UTC)
2022-05-06 (4 years ago)
Launch vehicle
FALCON 9
Launch site
Air Force Eastern Test Range (AFETR)
Object type
Payload
Rocket body
Debris
Shape & HBR
Box + 1 Pan, 10.1 m
Radar Cross Section
13.562 m², Large (>1 m²)

Expand to show TLE details & history
Last TLE update: 10 hours ago

TLE from 10 hours ago
0 STARLINK-3835
1 52476U 22049AB  25346.96970303  .00000321  00000-0  38269-4 0  9996
2 52476  53.2175  78.6639 0001601  95.3944 264.7231 15.08835864200533
Epoch: 2025-12-12T23:16Z
TLE epoch observation values (Epoch: 2025-12-12T23:16:22.341Z)
Latitude
-0.00002°
Longitude
7.6671°
Altitude
540.756 km
Speed
7.593 km/s
True Right ascension
05h 14m 39s
True Declination
0° 00' 00"
Sunlit
Object was in full shadow at epoch
Visualization orbit readout
Latitude
Unknown
Longitude
Unknown
Altitude
Unknown
Speed
Unknown
Apparent Right ascension
Unknown
Apparent Declination
Unknown
Sunlit
N/A
Visualization observer readout
Local Sidereal Time
07:30:34
Azimuth
Unknown
Elevation
Unknown
Doppler factor
Unknown
Orbital elements
Apogee altitude
541.109 km
Perigee altitude
538.893 km
Semi-major axis
6,918.138 km
Eccentricity
0.00016
Inclination
53.2175°
RAAN
78.6639°
Arg. of periapsis
95.3944°
True anomaly
264.70483°
Mean anomaly
264.7231°
Eccentric anomaly
264.71397°
Mean motion
3.77189 °/min
Orbital period
95.44 mins
BSTAR
0.000038269
Loading maneuver chart data...
Computing Atmospheric mass density...
Loading historical data...
Loading historical data...
Loading historical data...
Loading historical data...
Loading historical data...
Loading historical data...
Loading historical data...

Documentation

Showing up to 5 results
|